星链-4049 (STARLINK-4049 )

导读

STARLINK-4049是美国SpaceX公司星链(Starlink)星座中的一颗低轨通信卫星,采用Starlink v2.0 mini平台,于北京时间2022年6月17日发射升空。它运行在近地轨道,近地点高度约474.5千米,远地点约476.1千米,轨道倾角53.16度,为全球高速卫星互联网服务提供支持,目前仍在轨正常工作,是SpaceX大规模星座组网的组成部分。

Basic Information
目录编号:
52840
目录名称:
STARLINK-4049
国际标识:
2022-062L
轨道中心:
EARTH
卫星名称:
星链-4049
卫星全名:
星链-4049 (STARLINK-4049 )
卫星状态:
在轨 (已飞行1461 天)
发射日期:
2022-06-17 UTC
国别 :
美国 (US)
星等 :
--
Orbit Information
数据来源 国际轨道数据
星历时间: 2026-06-17T12:00:02+0800
11小时前
查看轨道信息
半长轴: 6764.928km
偏心率: 0.0001291
轨道倾角: 53.214°
近地点辐角 67.135°
升交点赤经 293.629°
平近点角 211.040°
近地点: 385.917km
远地点: 387.665km
周期: 92.290分钟
每日圈数: 15.602996
Detailed Information
固有亮度:
5
最大亮度:
2.5
卫星平台:
Starlink v1.5
覆盖范围:
全球
运营商:
太空探索技术公司
运营商所在国:
美国
制造商(研发单位):
太空探索技术公司
制造商所在国:
美国
使用方式:
暂无
Satellite Introduction
星链(Starlink)计划是由太空探索技术公司(SpaceX)提出的一个巨型低轨卫星互联网星座项目,计划在2019年至2024年间在太空搭建由约1.2万颗卫星组成的“星链”网络,其中1584颗将部署在地球上空550千米处的近地轨道,并从2020年开始工作。该卫星仍在工作。
2D Orbit Map
3D Orbit Map
Orbit Altitude Analysis Chart
Orbit Inclination Analysis Chart
Orbit Comprehensive Analysis Chart
View Comprehensive Chart